Back to catalog

INMARSAT GX5

AliveCommunicationsGEO
NORAD 44801·PAYLOAD·🇮🇲 IM

Launched Nov 26, 2019 from Guiana Space Centre

Loading…

TLE

FreshSource: Space-Track

Epoch: Sep 14, 2026, 13:51 UTC

1 44801U 19080B   26257.57735435  .00000067  00000-0  00000-0 0  9999
2 44801   0.0554   1.1981 0002133 177.7265  33.4790  1.00271044  7683

Track INMARSAT GX5 in real time with AllMySat

Download on the App Store